NKS931 KSMF-KSAN

Flight info

Callsign NKS931
Flight time 1h 15m
Altitude 37000
Route FTHIL3 FRA EHF HUULK COMIX2
Aircraft A21N/M-SDE3FGHIRWY/LB1

Departure

Time 2026-05-05 02:25
Airport Sacramento International Airport (KSMF)

Arrival

Time 2026-05-05 03:40
Airport San Diego International Airport (KSAN)
Time Latitude Longitude Altitude Speed Heading
2026-05-05 01:56 38.69514 -121.59399 30 ft 0 kts 24°
2026-05-05 02:12 38.69511 -121.59400 30 ft 2 kts 24°
2026-05-05 02:12 38.69497 -121.59408 30 ft 2 kts 24°
2026-05-05 02:13 38.69487 -121.59414 30 ft 0 kts 24°
2026-05-05 02:13 38.69477 -121.59418 30 ft 1 kts 352°
2026-05-05 02:13 38.69467 -121.59412 30 ft 1 kts 317°
2026-05-05 02:13 38.69460 -121.59400 30 ft 1 kts 281°
2026-05-05 02:14 38.69460 -121.59392 30 ft 1 kts 264°
2026-05-05 02:14 38.69460 -121.59387 30 ft 0 kts 270°
2026-05-05 02:18 38.69460 -121.59390 30 ft 0 kts 270°
2026-05-05 02:19 38.69460 -121.59409 30 ft 4 kts 268°
2026-05-05 02:19 38.69456 -121.59459 30 ft 5 kts 266°
2026-05-05 02:19 38.69454 -121.59515 30 ft 6 kts 270°
2026-05-05 02:19 38.69465 -121.59578 30 ft 7 kts 305°
2026-05-05 02:20 38.69516 -121.59601 30 ft 8 kts 360°
2026-05-05 02:20 38.69579 -121.59598 30 ft 9 kts
2026-05-05 02:20 38.69648 -121.59598 30 ft 10 kts 355°
2026-05-05 02:20 38.69698 -121.59654 30 ft 10 kts 281°
2026-05-05 02:21 38.69702 -121.59754 30 ft 11 kts 271°
2026-05-05 02:21 38.69726 -121.59849 30 ft 11 kts 326°
2026-05-05 02:21 38.69809 -121.59862 30 ft 12 kts 359°
2026-05-05 02:21 38.69921 -121.59860 30 ft 19 kts
2026-05-05 02:22 38.70057 -121.59859 30 ft 19 kts
2026-05-05 02:22 38.70188 -121.59855 30 ft 18 kts
2026-05-05 02:22 38.70316 -121.59853 30 ft 18 kts
2026-05-05 02:22 38.70443 -121.59851 30 ft 17 kts
2026-05-05 02:23 38.70568 -121.59849 30 ft 17 kts
2026-05-05 02:23 38.70678 -121.59851 30 ft 12 kts 350°
2026-05-05 02:23 38.70720 -121.59917 30 ft 9 kts 275°
2026-05-05 02:23 38.70720 -121.60001 30 ft 10 kts 268°
2026-05-05 02:24 38.70710 -121.60088 30 ft 8 kts 243°
2026-05-05 02:24 38.70655 -121.60113 30 ft 9 kts 178°
2026-05-05 02:24 38.70441 -121.60115 30 ft 64 kts 180°
2026-05-05 02:24 38.69758 -121.60127 30 ft 128 kts 180°
2026-05-05 02:25 38.68677 -121.60146 62 ft 174 kts 181°
2026-05-05 02:25 38.67464 -121.60186 625 ft 176 kts 180°
2026-05-05 02:25 38.66246 -121.59997 1200 ft 184 kts 156°
2026-05-05 02:25 38.65281 -121.58882 1725 ft 196 kts 122°
2026-05-05 02:26 38.64664 -121.57303 2120 ft 206 kts 116°
2026-05-05 02:26 38.64040 -121.55597 2423 ft 220 kts 115°
2026-05-05 02:26 38.63338 -121.53755 2703 ft 238 kts 119°
2026-05-05 02:26 38.62488 -121.51838 3046 ft 255 kts 122°
2026-05-05 02:27 38.61538 -121.49836 3538 ft 266 kts 123°
2026-05-05 02:27 38.60549 -121.47826 4243 ft 268 kts 123°
2026-05-05 02:27 38.59553 -121.45830 4967 ft 270 kts 123°
2026-05-05 02:27 38.58531 -121.43806 5676 ft 272 kts 123°
2026-05-05 02:28 38.57491 -121.41757 6379 ft 275 kts 123°
2026-05-05 02:28 38.56451 -121.39712 7075 ft 277 kts 123°
2026-05-05 02:28 38.55391 -121.37640 7753 ft 280 kts 122°
2026-05-05 02:28 38.54321 -121.35545 8420 ft 284 kts 122°
2026-05-05 02:29 38.53243 -121.33433 9060 ft 287 kts 122°
2026-05-05 02:29 38.52196 -121.31383 9665 ft 290 kts 121°
2026-05-05 02:29 38.51078 -121.29195 10278 ft 294 kts 121°
2026-05-05 02:29 38.49950 -121.26984 10608 ft 308 kts 121°
2026-05-05 02:30 38.48741 -121.24616 10888 ft 323 kts 121°
2026-05-05 02:30 38.47488 -121.22168 11286 ft 333 kts 121°
2026-05-05 02:30 38.46223 -121.19705 11881 ft 335 kts 121°
2026-05-05 02:30 38.44941 -121.17210 12502 ft 337 kts 121°
2026-05-05 02:31 38.43660 -121.14719 13086 ft 339 kts 121°
2026-05-05 02:31 38.42361 -121.12192 13638 ft 342 kts 121°
2026-05-05 02:31 38.41054 -121.09653 14181 ft 345 kts 121°
2026-05-05 02:31 38.39743 -121.07111 14725 ft 347 kts 121°
2026-05-05 02:32 38.38405 -121.04517 15275 ft 349 kts 120°
2026-05-05 02:32 38.37075 -121.01945 15820 ft 350 kts 120°
2026-05-05 02:32 38.35724 -120.99332 16354 ft 352 kts 120°
2026-05-05 02:32 38.34369 -120.96712 16854 ft 354 kts 120°
2026-05-05 02:33 38.33011 -120.94087 17329 ft 356 kts 119°
2026-05-05 02:33 38.31643 -120.91444 17834 ft 357 kts 119°
2026-05-05 02:33 38.30273 -120.88799 18329 ft 358 kts 118°
2026-05-05 02:33 38.28893 -120.86137 18771 ft 360 kts 118°
2026-05-05 02:34 38.27507 -120.83463 19232 ft 362 kts 118°
2026-05-05 02:34 38.26124 -120.80795 19680 ft 363 kts 119°
2026-05-05 02:34 38.24735 -120.78123 20113 ft 365 kts 118°
2026-05-05 02:34 38.23317 -120.75395 20574 ft 365 kts 118°
2026-05-05 02:35 38.21911 -120.72697 21047 ft 366 kts 118°
2026-05-05 02:35 38.20506 -120.70003 21438 ft 367 kts 118°
2026-05-05 02:35 38.19090 -120.67287 21823 ft 370 kts 118°
2026-05-05 02:35 38.17668 -120.64561 22211 ft 372 kts 117°
2026-05-05 02:36 38.16235 -120.61816 22624 ft 372 kts 118°
2026-05-05 02:36 38.14803 -120.59081 23039 ft 372 kts 117°
2026-05-05 02:36 38.13369 -120.56335 23413 ft 374 kts 117°
2026-05-05 02:36 38.11921 -120.53565 23753 ft 376 kts 117°
2026-05-05 02:37 38.10469 -120.50796 24097 ft 377 kts 117°
2026-05-05 02:37 38.09020 -120.48030 24442 ft 379 kts 117°
2026-05-05 02:37 38.07549 -120.45228 24794 ft 380 kts 117°
2026-05-05 02:37 38.06083 -120.42440 25129 ft 382 kts 117°
2026-05-05 02:38 38.04581 -120.39675 25464 ft 384 kts 118°
2026-05-05 02:38 38.03048 -120.36925 25745 ft 387 kts 118°
2026-05-05 02:38 38.01483 -120.34129 26009 ft 389 kts 119°
2026-05-05 02:38 37.99896 -120.31285 26321 ft 391 kts 119°
2026-05-05 02:39 37.98342 -120.28500 26635 ft 392 kts 119°
2026-05-05 02:39 37.96743 -120.25645 26931 ft 395 kts 120°
2026-05-05 02:39 37.94961 -120.22987 27183 ft 404 kts 128°
2026-05-05 02:39 37.92823 -120.20584 27438 ft 413 kts 136°
2026-05-05 02:40 37.89572 -120.17900 27831 ft 420 kts 142°
2026-05-05 02:40 37.87881 -120.16630 28021 ft 422 kts 142°
2026-05-05 02:40 37.85374 -120.14772 28268 ft 424 kts 142°
2026-05-05 02:40 37.82816 -120.12883 28538 ft 426 kts 143°
2026-05-05 02:41 37.80257 -120.10987 28786 ft 427 kts 142°
2026-05-05 02:41 37.77676 -120.09072 29046 ft 428 kts 143°
2026-05-05 02:41 37.75103 -120.07162 29287 ft 430 kts 143°
2026-05-05 02:41 37.72510 -120.05238 29492 ft 433 kts 142°
2026-05-05 02:42 37.69905 -120.03304 29727 ft 434 kts 142°
2026-05-05 02:42 37.67300 -120.01372 29974 ft 435 kts 143°
2026-05-05 02:42 37.64685 -119.99430 30197 ft 436 kts 143°
2026-05-05 02:42 37.62066 -119.97489 30403 ft 437 kts 143°
2026-05-05 02:43 37.59415 -119.95524 30569 ft 439 kts 143°
2026-05-05 02:43 37.56784 -119.93575 30697 ft 441 kts 143°
2026-05-05 02:43 37.54143 -119.91618 30834 ft 443 kts 144°
2026-05-05 02:43 37.51476 -119.89648 30989 ft 445 kts 144°
2026-05-05 02:44 37.48788 -119.87666 31147 ft 447 kts 145°
2026-05-05 02:44 37.46094 -119.85679 31350 ft 447 kts 145°
2026-05-05 02:44 37.43412 -119.83697 31598 ft 446 kts 146°
2026-05-05 02:44 37.40733 -119.81725 31822 ft 445 kts 147°
2026-05-05 02:45 37.38055 -119.79755 32037 ft 445 kts 147°
2026-05-05 02:45 37.35390 -119.77796 32267 ft 444 kts 148°
2026-05-05 02:45 37.32725 -119.75839 32482 ft 444 kts 148°
2026-05-05 02:45 37.30057 -119.73885 32664 ft 444 kts 149°
2026-05-05 02:46 37.27386 -119.71931 32863 ft 444 kts 149°
2026-05-05 02:46 37.24721 -119.69977 33070 ft 442 kts 149°
2026-05-05 02:46 37.22084 -119.68049 33258 ft 441 kts 150°
2026-05-05 02:46 37.19430 -119.66110 33433 ft 441 kts 150°
2026-05-05 02:47 37.16746 -119.64152 33636 ft 440 kts 152°
2026-05-05 02:47 37.14043 -119.62334 33808 ft 441 kts 155°
2026-05-05 02:47 37.11284 -119.60722 33898 ft 443 kts 158°
2026-05-05 02:48 37.05445 -119.58057 34107 ft 446 kts 165°
2026-05-05 02:48 37.02452 -119.57045 34342 ft 443 kts 167°
2026-05-05 02:48 36.99448 -119.56105 34667 ft 440 kts 167°
2026-05-05 02:48 36.96492 -119.55180 35018 ft 435 kts 168°
2026-05-05 02:49 36.93578 -119.54271 35333 ft 432 kts 168°
2026-05-05 02:49 36.90656 -119.53360 35543 ft 431 kts 168°
2026-05-05 02:49 36.87743 -119.52451 35711 ft 431 kts 168°
2026-05-05 02:49 36.84888 -119.51559 35881 ft 430 kts 168°
2026-05-05 02:50 36.81982 -119.50655 36018 ft 431 kts 168°
2026-05-05 02:50 36.79051 -119.49743 36137 ft 432 kts 168°
2026-05-05 02:50 36.76136 -119.48834 36264 ft 432 kts 168°
2026-05-05 02:51 36.70249 -119.47003 36337 ft 433 kts 169°
2026-05-05 02:51 36.67319 -119.46092 36556 ft 432 kts 169°
2026-05-05 02:51 36.64428 -119.45197 36723 ft 431 kts 169°
2026-05-05 02:51 36.61489 -119.44286 36850 ft 431 kts 169°
2026-05-05 02:52 36.58548 -119.43374 36961 ft 432 kts 169°
2026-05-05 02:52 36.52720 -119.41569 36973 ft 432 kts 169°
2026-05-05 02:53 36.46857 -119.39756 36996 ft 431 kts 169°
2026-05-05 02:53 36.41007 -119.37950 36962 ft 431 kts 169°
2026-05-05 02:54 36.35183 -119.36157 36973 ft 431 kts 169°
2026-05-05 02:54 36.29350 -119.34360 36967 ft 429 kts 170°
2026-05-05 02:55 36.23537 -119.32573 36961 ft 428 kts 170°
2026-05-05 02:55 36.17738 -119.30791 36985 ft 427 kts 170°
2026-05-05 02:56 36.11977 -119.29028 36973 ft 426 kts 171°
2026-05-05 02:56 36.06224 -119.27269 36950 ft 424 kts 171°
2026-05-05 02:57 36.00490 -119.25518 36955 ft 424 kts 171°
2026-05-05 02:57 35.94717 -119.23758 36960 ft 424 kts 171°
2026-05-05 02:58 35.89008 -119.22019 36977 ft 424 kts 171°
2026-05-05 02:58 35.83316 -119.20288 36973 ft 423 kts 171°
2026-05-05 02:59 35.77707 -119.18584 36980 ft 422 kts 171°
2026-05-05 02:59 35.71986 -119.16853 36975 ft 422 kts 171°
2026-05-05 03:00 35.66245 -119.15114 36982 ft 423 kts 171°
2026-05-05 03:00 35.60548 -119.13390 36982 ft 422 kts 171°
2026-05-05 03:01 35.54825 -119.11665 36985 ft 422 kts 171°
2026-05-05 03:01 35.49140 -119.09701 36977 ft 423 kts 167°
2026-05-05 03:02 35.43636 -119.07038 36983 ft 428 kts 161°
2026-05-05 03:02 35.38182 -119.03996 36984 ft 427 kts 162°
2026-05-05 03:03 35.32772 -119.00983 36985 ft 427 kts 162°
2026-05-05 03:03 35.27375 -118.97981 36973 ft 425 kts 162°
2026-05-05 03:04 35.21957 -118.94971 36980 ft 426 kts 162°
2026-05-05 03:04 35.16547 -118.91967 36978 ft 426 kts 162°
2026-05-05 03:05 35.11153 -118.88975 36981 ft 426 kts 163°
2026-05-05 03:05 35.05757 -118.85988 36971 ft 424 kts 163°
2026-05-05 03:06 35.00364 -118.83007 36984 ft 425 kts 163°
2026-05-05 03:06 34.94962 -118.80027 36980 ft 426 kts 163°
2026-05-05 03:07 34.89555 -118.77045 36977 ft 424 kts 163°
2026-05-05 03:07 34.84125 -118.74053 36961 ft 424 kts 163°
2026-05-05 03:08 34.78718 -118.71086 36947 ft 425 kts 163°
2026-05-05 03:08 34.73338 -118.68132 36954 ft 425 kts 164°
2026-05-05 03:09 34.67932 -118.65167 36953 ft 423 kts 164°
2026-05-05 03:09 34.62565 -118.62231 36959 ft 423 kts 164°
2026-05-05 03:10 34.57264 -118.59008 36963 ft 430 kts 159°
2026-05-05 03:10 34.52102 -118.55332 36968 ft 429 kts 159°
2026-05-05 03:11 34.46944 -118.51662 36979 ft 429 kts 159°
2026-05-05 03:11 34.41790 -118.47992 36992 ft 429 kts 159°
2026-05-05 03:12 34.36625 -118.44321 36996 ft 429 kts 159°
2026-05-05 03:12 34.31477 -118.40666 37004 ft 428 kts 159°
2026-05-05 03:13 34.26314 -118.37005 37002 ft 429 kts 160°
2026-05-05 03:13 34.21138 -118.33339 37003 ft 428 kts 160°
2026-05-05 03:13 34.18538 -118.31502 36682 ft 428 kts 160°
2026-05-05 03:14 34.15976 -118.29687 36147 ft 426 kts 161°
2026-05-05 03:14 34.13424 -118.27880 35529 ft 424 kts 161°
2026-05-05 03:14 34.10871 -118.26077 34878 ft 424 kts 161°
2026-05-05 03:14 34.08348 -118.24297 34194 ft 424 kts 162°
2026-05-05 03:15 34.05798 -118.22501 33491 ft 424 kts 162°
2026-05-05 03:15 34.03236 -118.20699 32831 ft 424 kts 162°
2026-05-05 03:15 34.00694 -118.18911 32180 ft 426 kts 162°
2026-05-05 03:15 33.98109 -118.17101 31465 ft 429 kts 162°
2026-05-05 03:16 33.95514 -118.15283 30787 ft 429 kts 161°
2026-05-05 03:16 33.92963 -118.13489 30292 ft 425 kts 161°
2026-05-05 03:16 33.90407 -118.11688 29785 ft 420 kts 162°
2026-05-05 03:16 33.87879 -118.09911 29264 ft 416 kts 161°
2026-05-05 03:17 33.85397 -118.08174 28738 ft 412 kts 161°
2026-05-05 03:17 33.82923 -118.06482 28224 ft 407 kts 162°
2026-05-05 03:17 33.80423 -118.04826 27733 ft 403 kts 162°
2026-05-05 03:17 33.77982 -118.03220 27264 ft 400 kts 161°
2026-05-05 03:18 33.75559 -118.01626 26788 ft 397 kts 161°
2026-05-05 03:18 33.73117 -118.00019 26311 ft 394 kts 161°
2026-05-05 03:18 33.70720 -117.98436 25830 ft 392 kts 160°
2026-05-05 03:18 33.68354 -117.96873 25373 ft 389 kts 160°
2026-05-05 03:19 33.63591 -117.93730 24431 ft 386 kts 159°
2026-05-05 03:19 33.61261 -117.92196 23974 ft 384 kts 159°
2026-05-05 03:19 33.58931 -117.90660 23500 ft 383 kts 158°
2026-05-05 03:20 33.56581 -117.89111 23007 ft 381 kts 158°
2026-05-05 03:20 33.54279 -117.87588 22538 ft 380 kts 157°
2026-05-05 03:20 33.51970 -117.86021 22072 ft 378 kts 156°
2026-05-05 03:20 33.49706 -117.84472 21623 ft 376 kts 156°
2026-05-05 03:21 33.47437 -117.82921 21164 ft 374 kts 156°
2026-05-05 03:21 33.45204 -117.81292 20723 ft 374 kts 152°
2026-05-05 03:21 33.43102 -117.79480 20276 ft 375 kts 147°
2026-05-05 03:21 33.41095 -117.77451 19832 ft 375 kts 143°
2026-05-05 03:22 33.39157 -117.75383 19384 ft 374 kts 143°
2026-05-05 03:22 33.37242 -117.73326 18943 ft 372 kts 142°
2026-05-05 03:22 33.35299 -117.71240 18505 ft 370 kts 142°
2026-05-05 03:22 33.33398 -117.69204 18062 ft 368 kts 142°
2026-05-05 03:23 33.31486 -117.67159 17618 ft 367 kts 142°
2026-05-05 03:23 33.29591 -117.65136 17175 ft 365 kts 142°
2026-05-05 03:23 33.27710 -117.63132 16739 ft 363 kts 142°
2026-05-05 03:23 33.25837 -117.61134 16307 ft 361 kts 142°
2026-05-05 03:24 33.23954 -117.59135 15869 ft 359 kts 142°
2026-05-05 03:24 33.22094 -117.57174 15431 ft 357 kts 142°
2026-05-05 03:24 33.20231 -117.55216 14994 ft 356 kts 142°
2026-05-05 03:24 33.18393 -117.53286 14556 ft 354 kts 142°
2026-05-05 03:25 33.16560 -117.51357 14108 ft 352 kts 141°
2026-05-05 03:25 33.14708 -117.49416 13681 ft 350 kts 142°
2026-05-05 03:25 33.12823 -117.47636 13261 ft 347 kts 147°
2026-05-05 03:25 33.10855 -117.45972 12827 ft 345 kts 148°
2026-05-05 03:26 33.08894 -117.44342 12395 ft 343 kts 148°
2026-05-05 03:26 33.06942 -117.42722 11963 ft 342 kts 148°
2026-05-05 03:26 33.04971 -117.41085 11525 ft 340 kts 148°
2026-05-05 03:26 33.03053 -117.39479 11092 ft 339 kts 148°
2026-05-05 03:27 33.01113 -117.37852 10660 ft 338 kts 148°
2026-05-05 03:27 32.99239 -117.36274 10475 ft 327 kts 148°
2026-05-05 03:27 32.97408 -117.34735 10348 ft 315 kts 148°
2026-05-05 03:27 32.95639 -117.33252 10169 ft 305 kts 148°
2026-05-05 03:28 32.93906 -117.31799 10059 ft 292 kts 148°
2026-05-05 03:28 32.92277 -117.30434 9950 ft 280 kts 148°
2026-05-05 03:28 32.90696 -117.29116 9704 ft 275 kts 149°
2026-05-05 03:28 32.89119 -117.27805 9366 ft 274 kts 149°
2026-05-05 03:29 32.87544 -117.26499 9030 ft 272 kts 149°
2026-05-05 03:29 32.85969 -117.25193 8699 ft 271 kts 149°
2026-05-05 03:29 32.84412 -117.23903 8376 ft 269 kts 149°
2026-05-05 03:29 32.82873 -117.22626 8053 ft 267 kts 148°
2026-05-05 03:30 32.81441 -117.21213 7702 ft 270 kts 130°
2026-05-05 03:30 32.80613 -117.19196 7388 ft 272 kts 107°
2026-05-05 03:30 32.80155 -117.17033 7084 ft 270 kts 105°
2026-05-05 03:30 32.79721 -117.14868 6858 ft 264 kts 105°
2026-05-05 03:31 32.79282 -117.12755 6578 ft 261 kts 105°
2026-05-05 03:31 32.78831 -117.10674 6299 ft 258 kts 105°
2026-05-05 03:31 32.78375 -117.08613 6068 ft 252 kts 105°
2026-05-05 03:31 32.77953 -117.06640 5937 ft 244 kts 103°
2026-05-05 03:32 32.77612 -117.04616 5767 ft 243 kts 101°
2026-05-05 03:32 32.77310 -117.02670 5469 ft 241 kts 101°
2026-05-05 03:32 32.77008 -117.00693 5169 ft 240 kts 101°
2026-05-05 03:32 32.76714 -116.98748 4982 ft 238 kts 101°
2026-05-05 03:33 32.76420 -116.96793 4981 ft 239 kts 101°
2026-05-05 03:33 32.76132 -116.94845 4982 ft 240 kts 101°
2026-05-05 03:33 32.75847 -116.92901 4973 ft 239 kts 101°
2026-05-05 03:33 32.75476 -116.90977 4958 ft 238 kts 116°
2026-05-05 03:34 32.74455 -116.89455 4953 ft 232 kts 150°
2026-05-05 03:34 32.72969 -116.88847 4963 ft 224 kts 183°
2026-05-05 03:34 32.71493 -116.89208 4878 ft 211 kts 205°
2026-05-05 03:34 32.70159 -116.89937 4501 ft 213 kts 213°
2026-05-05 03:35 32.69091 -116.91141 4060 ft 212 kts 242°
2026-05-05 03:35 32.68486 -116.92718 3597 ft 212 kts 256°
2026-05-05 03:35 32.68208 -116.94431 3148 ft 210 kts 263°
2026-05-05 03:35 32.68131 -116.96098 2992 ft 192 kts 272°
2026-05-05 03:36 32.68290 -116.97614 2991 ft 181 kts 280°
2026-05-05 03:36 32.68572 -116.99059 2975 ft 179 kts 283°
2026-05-05 03:36 32.68905 -117.00501 2970 ft 180 kts 284°
2026-05-05 03:36 32.69253 -117.01945 2964 ft 180 kts 285°
2026-05-05 03:37 32.69604 -117.03388 2880 ft 181 kts 285°
2026-05-05 03:37 32.69949 -117.04813 2637 ft 175 kts 284°
2026-05-05 03:37 32.70274 -117.06158 2331 ft 162 kts 284°
2026-05-05 03:37 32.70572 -117.07394 2075 ft 148 kts 284°
2026-05-05 03:38 32.70850 -117.08550 1881 ft 145 kts 284°
2026-05-05 03:38 32.71128 -117.09705 1655 ft 144 kts 284°
2026-05-05 03:38 32.71408 -117.10870 1427 ft 144 kts 284°
2026-05-05 03:38 32.71685 -117.12015 1202 ft 143 kts 285°
2026-05-05 03:39 32.71966 -117.13163 972 ft 143 kts 284°
2026-05-05 03:39 32.72236 -117.14309 778 ft 143 kts 284°
2026-05-05 03:39 32.72504 -117.15442 575 ft 143 kts 284°
2026-05-05 03:39 32.72776 -117.16589 347 ft 143 kts 284°
2026-05-05 03:40 32.73053 -117.17711 100 ft 142 kts 285°
2026-05-05 03:40 32.73323 -117.18812 24 ft 125 kts 284°
2026-05-05 03:40 32.73468 -117.19456 23 ft 37 kts 283°
2026-05-05 03:40 32.73526 -117.19679 22 ft 14 kts 284°
2026-05-05 03:41 32.73521 -117.19799 22 ft 14 kts 252°
2026-05-05 03:41 32.73496 -117.19891 22 ft 5 kts 257°
2026-05-05 03:41 32.73496 -117.19893 22 ft 0 kts 257°
2026-05-05 03:42 32.73495 -117.19894 22 ft 0 kts 257°
2026-05-05 03:42 32.73495 -117.19895 22 ft 0 kts 257°
2026-05-05 03:42 32.73494 -117.19902 22 ft 1 kts 257°
2026-05-05 03:43 32.73492 -117.19918 22 ft 2 kts 263°
2026-05-05 03:43 32.73493 -117.19946 22 ft 4 kts 279°
2026-05-05 03:43 32.73500 -117.19984 21 ft 5 kts 286°
2026-05-05 03:43 32.73511 -117.20029 21 ft 6 kts 285°
2026-05-05 03:44 32.73524 -117.20084 21 ft 7 kts 285°
2026-05-05 03:44 32.73539 -117.20149 21 ft 8 kts 285°
2026-05-05 03:44 32.73557 -117.20225 21 ft 9 kts 286°
2026-05-05 03:44 32.73577 -117.20305 21 ft 10 kts 286°
2026-05-05 03:45 32.73590 -117.20378 20 ft 7 kts 266°
2026-05-05 03:45 32.73564 -117.20439 20 ft 8 kts 232°
2026-05-05 03:45 32.73524 -117.20496 20 ft 8 kts 230°
2026-05-05 03:45 32.73476 -117.20548 20 ft 9 kts 208°
2026-05-05 03:46 32.73430 -117.20561 20 ft 6 kts 185°
2026-05-05 03:46 32.73385 -117.20561 20 ft 4 kts 178°
2026-05-05 03:46 32.73378 -117.20560 20 ft 1 kts 179°
2026-05-05 03:46 32.73362 -117.20558 20 ft 3 kts 168°
2026-05-05 03:47 32.73337 -117.20541 20 ft 4 kts 137°
2026-05-05 03:47 32.73333 -117.20523 20 ft 3 kts 84°
2026-05-05 03:47 32.73338 -117.20493 20 ft 4 kts 78°
2026-05-05 03:47 32.73342 -117.20470 20 ft 2 kts 77°
2026-05-05 03:48 32.73343 -117.20469 20 ft 0 kts 77°